If you wish to contribute or participate in the discussions about articles you are invited to join SKYbrary as a registered user

 Actions

Solenzara (BA 126) Air Base

From SKYbrary Wiki

LFKS /
Revision as of 20:15, 16 February 2015 by Timo.Kouwenhoven (talk | contribs) (LF Airports CSV import)
(diff) ← Older revision | Latest revision (diff) | Newer revision → (diff)
Airport
ICAO: LFKS – IATA: SOZ
Summary
Name Solenzara (BA 126) Air Base
Region Europe
Territory France FR.gif
Location , Corse
Serving Solenzara
Elevation 8.534 m
28 ft
28 ft8.534 m
Type medium airport
Coordinates 41° 55' 27.90" N, 9° 24' 21.60" E
Runways
Designator Length Width Surface ROPS
18/36 2627 m8,618.766 ft
45 m147.638 ft
CON /


METAR
Observation LFKS 102100Z AUTO 35009KT 9999 FEW062 12/02 Q1018
Station Solenzara
Date/Time 10 December 2019 21:00:00
Wind direction 350°
Wind speed 09 kts
Lowest cloud amount few clouds
Temperature 12°C
Dew point 2°C
Humidity 50%
QNH 1018 hPa
Weather condition n/a